GLET20 YSNW-YWLM

Flight info

Callsign GLET20
Flight time 1h 48m
Altitude 5500
Route MSV DCT KADOM DCT MVI/N0151F070 DCT RUTOS DCT MAKOR DCT NBB DCT WLM
Aircraft H60/M-SDFHITUY/C

Departure

Time 2026-05-01 09:34
Airport Naval Air Station Nowra - HMAS Albatross (YSNW)

Arrival

Time 2026-05-01 11:22
Airport Newcastle Airport (YWLM)
Time Latitude Longitude Altitude Speed Heading
2026-05-01 09:15 -34.94417 150.53547 358 ft 0 kts 225°
2026-05-01 09:25 -34.94420 150.53544 357 ft 1 kts 224°
2026-05-01 09:25 -34.94432 150.53530 358 ft 0 kts 222°
2026-05-01 09:26 -34.94437 150.53530 361 ft 2 kts 157°
2026-05-01 09:26 -34.94492 150.53509 362 ft 7 kts 224°
2026-05-01 09:26 -34.94533 150.53460 358 ft 9 kts 224°
2026-05-01 09:27 -34.94632 150.53396 363 ft 6 kts 185°
2026-05-01 09:27 -34.94675 150.53391 367 ft 7 kts 183°
2026-05-01 09:27 -34.94728 150.53387 366 ft 6 kts 185°
2026-05-01 09:28 -34.94751 150.53354 366 ft 6 kts 275°
2026-05-01 09:28 -34.94749 150.53306 364 ft 3 kts 274°
2026-05-01 09:28 -34.94749 150.53305 364 ft 0 kts 274°
2026-05-01 09:31 -34.94748 150.53290 371 ft 2 kts 71°
2026-05-01 09:31 -34.94720 150.52889 480 ft 65 kts 276°
2026-05-01 09:32 -34.94636 150.52176 761 ft 99 kts 288°
2026-05-01 09:32 -34.93515 150.52530 952 ft 106 kts 53°
2026-05-01 09:32 -34.93108 150.53244 986 ft 99 kts 53°
2026-05-01 09:33 -34.92697 150.53934 965 ft 102 kts 51°
2026-05-01 09:33 -34.92246 150.54612 932 ft 102 kts 49°
2026-05-01 09:33 -34.91271 150.55924 863 ft 102 kts 46°
2026-05-01 09:34 -34.90836 150.56561 1020 ft 98 kts 51°
2026-05-01 09:34 -34.90729 150.57376 1054 ft 102 kts 92°
2026-05-01 09:34 -34.90828 150.59213 1061 ft 113 kts 82°
2026-05-01 09:35 -34.90813 150.60152 1112 ft 108 kts 85°
2026-05-01 09:35 -34.91273 150.61713 1248 ft 109 kts 160°
2026-05-01 09:35 -34.91819 150.61259 1241 ft 96 kts 265°
2026-05-01 09:36 -34.91430 150.60910 1238 ft 77 kts 14°
2026-05-01 09:36 -34.90878 150.61184 1329 ft 94 kts 25°
2026-05-01 09:36 -34.90289 150.61574 1367 ft 95 kts 27°
2026-05-01 09:36 -34.89715 150.61934 1464 ft 97 kts 14°
2026-05-01 09:37 -34.88998 150.62068 1315 ft 110 kts 15°
2026-05-01 09:37 -34.87527 150.62594 1191 ft 111 kts 19°
2026-05-01 09:37 -34.86805 150.62908 1220 ft 112 kts 20°
2026-05-01 09:38 -34.85359 150.63614 1287 ft 114 kts 23°
2026-05-01 09:38 -34.84615 150.64021 1221 ft 121 kts 26°
2026-05-01 09:38 -34.83860 150.64521 1071 ft 127 kts 30°
2026-05-01 09:39 -34.82263 150.65557 523 ft 131 kts 26°
2026-05-01 09:39 -34.81560 150.66164 407 ft 120 kts 56°
2026-05-01 09:39 -34.81148 150.66991 513 ft 112 kts 48°
2026-05-01 09:40 -34.80561 150.66857 422 ft 94 kts 300°
2026-05-01 09:40 -34.79605 150.66881 723 ft 95 kts 32°
2026-05-01 09:40 -34.79025 150.67341 783 ft 102 kts 33°
2026-05-01 09:41 -34.78618 150.67601 809 ft 96 kts 15°
2026-05-01 09:41 -34.77553 150.66950 1159 ft 85 kts 334°
2026-05-01 09:41 -34.77091 150.66480 1258 ft 96 kts 302°
2026-05-01 09:42 -34.77076 150.65711 1360 ft 89 kts 264°
2026-05-01 09:42 -34.76965 150.65001 1525 ft 87 kts 304°
2026-05-01 09:42 -34.76037 150.63800 1795 ft 94 kts 314°
2026-05-01 09:43 -34.75098 150.62433 1718 ft 120 kts 307°
2026-05-01 09:43 -34.74652 150.61576 1577 ft 119 kts 301°
2026-05-01 09:43 -34.74257 150.60703 1488 ft 116 kts 299°
2026-05-01 09:44 -34.73600 150.58964 1430 ft 110 kts 293°
2026-05-01 09:44 -34.73322 150.58122 1406 ft 108 kts 295°
2026-05-01 09:44 -34.73018 150.57289 1372 ft 107 kts 296°
2026-05-01 09:45 -34.72699 150.56490 1395 ft 104 kts 299°
2026-05-01 09:45 -34.71900 150.55011 1381 ft 108 kts 314°
2026-05-01 09:45 -34.71359 150.54430 1415 ft 95 kts 322°
2026-05-01 09:46 -34.70880 150.53961 1652 ft 86 kts 323°
2026-05-01 09:46 -34.70404 150.53498 1819 ft 90 kts 324°
2026-05-01 09:46 -34.69919 150.53022 1955 ft 89 kts 324°
2026-05-01 09:46 -34.69462 150.52522 2111 ft 88 kts 321°
2026-05-01 09:47 -34.68976 150.52026 2230 ft 95 kts 327°
2026-05-01 09:47 -34.68446 150.51522 2319 ft 98 kts 327°
2026-05-01 09:47 -34.67903 150.51059 2428 ft 95 kts 331°
2026-05-01 09:47 -34.67370 150.50593 2509 ft 90 kts 334°
2026-05-01 09:48 -34.66861 150.50184 2712 ft 89 kts 334°
2026-05-01 09:48 -34.66304 150.49778 2733 ft 95 kts 338°
2026-05-01 09:48 -34.65712 150.49392 2738 ft 99 kts 339°
2026-05-01 09:48 -34.65056 150.49004 2756 ft 113 kts 341°
2026-05-01 09:49 -34.64267 150.48611 2711 ft 130 kts 343°
2026-05-01 09:49 -34.63457 150.48229 2639 ft 114 kts 341°
2026-05-01 09:49 -34.62758 150.47912 2772 ft 103 kts 344°
2026-05-01 09:49 -34.62081 150.47669 2850 ft 99 kts 350°
2026-05-01 09:50 -34.61426 150.47631 2899 ft 91 kts 15°
2026-05-01 09:50 -34.60998 150.48147 2947 ft 89 kts 57°
2026-05-01 09:50 -34.60701 150.48854 2982 ft 99 kts 58°
2026-05-01 09:50 -34.60374 150.49607 2956 ft 102 kts 59°
2026-05-01 09:51 -34.60025 150.50369 2930 ft 104 kts 55°
2026-05-01 09:51 -34.59427 150.50643 2846 ft 92 kts 351°
2026-05-01 09:51 -34.58888 150.50438 3147 ft 89 kts 352°
2026-05-01 09:51 -34.58215 150.50279 3126 ft 107 kts 356°
2026-05-01 09:52 -34.57485 150.50204 3075 ft 102 kts
2026-05-01 09:52 -34.56801 150.50143 3153 ft 97 kts 357°
2026-05-01 09:52 -34.56140 150.49952 3171 ft 99 kts 348°
2026-05-01 09:52 -34.55523 150.49567 3192 ft 100 kts 334°
2026-05-01 09:53 -34.54952 150.49087 3243 ft 101 kts 333°
2026-05-01 09:53 -34.54361 150.48612 3242 ft 100 kts 335°
2026-05-01 09:53 -34.53785 150.48180 3312 ft 94 kts 336°
2026-05-01 09:53 -34.53217 150.47772 3385 ft 96 kts 337°
2026-05-01 09:54 -34.52633 150.47352 3372 ft 102 kts 336°
2026-05-01 09:54 -34.52003 150.46925 3276 ft 104 kts 336°
2026-05-01 09:54 -34.51400 150.46459 3245 ft 102 kts 333°
2026-05-01 09:54 -34.50852 150.45937 3298 ft 101 kts 321°
2026-05-01 09:55 -34.50430 150.45270 3411 ft 98 kts 318°
2026-05-01 09:55 -34.49909 150.44750 3453 ft 97 kts 338°
2026-05-01 09:55 -34.49345 150.44267 3421 ft 102 kts 324°
2026-05-01 09:55 -34.48804 150.43750 3490 ft 95 kts 334°
2026-05-01 09:56 -34.48182 150.43661 3428 ft 97 kts 19°
2026-05-01 09:56 -34.47688 150.44190 3356 ft 95 kts 52°
2026-05-01 09:56 -34.47359 150.44889 3318 ft 95 kts 54°
2026-05-01 09:56 -34.47016 150.45587 3346 ft 98 kts 53°
2026-05-01 09:57 -34.46645 150.46303 3323 ft 102 kts 54°
2026-05-01 09:57 -34.46259 150.47032 3284 ft 103 kts 54°
2026-05-01 09:57 -34.45883 150.47742 3327 ft 97 kts 53°
2026-05-01 09:57 -34.45532 150.48409 3434 ft 93 kts 53°
2026-05-01 09:58 -34.45194 150.49090 3448 ft 96 kts 58°
2026-05-01 09:58 -34.45243 150.49907 3432 ft 103 kts 110°
2026-05-01 09:58 -34.45876 150.50257 3572 ft 109 kts 176°
2026-05-01 09:58 -34.46497 150.49752 3592 ft 110 kts 242°
2026-05-01 09:59 -34.46513 150.48921 3658 ft 95 kts 302°
2026-05-01 09:59 -34.46022 150.48549 3720 ft 83 kts
2026-05-01 09:59 -34.45519 150.48913 3649 ft 94 kts 45°
2026-05-01 09:59 -34.45238 150.49654 3564 ft 101 kts 72°
2026-05-01 10:00 -34.45367 150.50482 3587 ft 104 kts 108°
2026-05-01 10:00 -34.45945 150.50997 3686 ft 113 kts 162°
2026-05-01 10:00 -34.46674 150.50622 3549 ft 121 kts 234°
2026-05-01 10:00 -34.46728 150.49723 3430 ft 105 kts 301°
2026-05-01 10:01 -34.46355 150.48971 3445 ft 107 kts 315°
2026-05-01 10:01 -34.45870 150.48266 3396 ft 110 kts 321°
2026-05-01 10:01 -34.45338 150.47603 3339 ft 108 kts 322°
2026-05-01 10:01 -34.44798 150.46980 3378 ft 108 kts 323°
2026-05-01 10:02 -34.44253 150.46318 3296 ft 115 kts 323°
2026-05-01 10:02 -34.43688 150.45584 3140 ft 123 kts 310°
2026-05-01 10:02 -34.43255 150.44673 2999 ft 125 kts 309°
2026-05-01 10:02 -34.42672 150.43999 2847 ft 107 kts 356°
2026-05-01 10:03 -34.42340 150.44541 2743 ft 91 kts 94°
2026-05-01 10:03 -34.42657 150.45261 2867 ft 102 kts 113°
2026-05-01 10:03 -34.43012 150.46022 2969 ft 106 kts 113°
2026-05-01 10:03 -34.43403 150.46809 3028 ft 112 kts 114°
2026-05-01 10:04 -34.43797 150.47659 2997 ft 120 kts 111°
2026-05-01 10:04 -34.44182 150.48561 2906 ft 119 kts 108°
2026-05-01 10:04 -34.44543 150.49426 2937 ft 109 kts 109°
2026-05-01 10:04 -34.44869 150.50196 3137 ft 100 kts 109°
2026-05-01 10:05 -34.45217 150.50971 3191 ft 111 kts 111°
2026-05-01 10:05 -34.45624 150.51830 3068 ft 123 kts 113°
2026-05-01 10:05 -34.46083 150.52762 2812 ft 134 kts 116°
2026-05-01 10:05 -34.46600 150.53686 2485 ft 129 kts 136°
2026-05-01 10:06 -34.47424 150.53855 2452 ft 118 kts 198°
2026-05-01 10:06 -34.47559 150.53155 2386 ft 99 kts 312°
2026-05-01 10:06 -34.47019 150.52559 2408 ft 113 kts 323°
2026-05-01 10:06 -34.46424 150.51938 2365 ft 112 kts 323°
2026-05-01 10:07 -34.45818 150.51331 2324 ft 114 kts 324°
2026-05-01 10:07 -34.45191 150.50720 2191 ft 121 kts 323°
2026-05-01 10:07 -34.44815 150.49998 1972 ft 80 kts 256°
2026-05-01 10:07 -34.45013 150.49629 1898 ft 36 kts 243°
2026-05-01 10:08 -34.45107 150.49352 1854 ft 3 kts 252°
2026-05-01 10:08 -34.45108 150.49350 1854 ft 0 kts 252°
2026-05-01 10:11 -34.45109 150.49342 1869 ft 9 kts 254°
2026-05-01 10:12 -34.45143 150.49046 1970 ft 55 kts 269°
2026-05-01 10:12 -34.45167 150.48649 2134 ft 89 kts 270°
2026-05-01 10:12 -34.45179 150.49135 1884 ft 128 kts 68°
2026-05-01 10:13 -34.44916 150.50198 1912 ft 134 kts 72°
2026-05-01 10:13 -34.44552 150.50226 2030 ft 79 kts 248°
2026-05-01 10:13 -34.44905 150.49774 2013 ft 73 kts 236°
2026-05-01 10:14 -34.45112 150.49322 1872 ft 1 kts 167°
2026-05-01 10:14 -34.45109 150.49322 1874 ft 2 kts 46°
2026-05-01 10:14 -34.45105 150.49286 1871 ft 13 kts 201°
2026-05-01 10:14 -34.45149 150.49191 1880 ft 15 kts 90°
2026-05-01 10:15 -34.45157 150.49232 1884 ft 9 kts 62°
2026-05-01 10:15 -34.45122 150.49373 1916 ft 24 kts 32°
2026-05-01 10:15 -34.45046 150.49523 1977 ft 14 kts 333°
2026-05-01 10:15 -34.44870 150.49371 2086 ft 55 kts 319°
2026-05-01 10:16 -34.44469 150.48882 2252 ft 106 kts 312°
2026-05-01 10:16 -34.43967 150.48128 2486 ft 117 kts 311°
2026-05-01 10:16 -34.43175 150.46199 2632 ft 147 kts 275°
2026-05-01 10:17 -34.43122 150.44934 2522 ft 151 kts 277°
2026-05-01 10:17 -34.41841 150.43402 2543 ft 137 kts 341°
2026-05-01 10:17 -34.40916 150.43008 2420 ft 143 kts 339°
2026-05-01 10:18 -34.39063 150.42310 2350 ft 134 kts 342°
2026-05-01 10:18 -34.38166 150.41961 2371 ft 137 kts 337°
2026-05-01 10:18 -34.37314 150.41442 2374 ft 137 kts 332°
2026-05-01 10:19 -34.36483 150.40869 2415 ft 139 kts 334°
2026-05-01 10:19 -34.35605 150.40387 2292 ft 139 kts 341°
2026-05-01 10:19 -34.34707 150.40029 2332 ft 136 kts 345°
2026-05-01 10:20 -34.32786 150.39265 1968 ft 154 kts 338°
2026-05-01 10:20 -34.31827 150.38690 1777 ft 149 kts 335°
2026-05-01 10:20 -34.30925 150.38164 1881 ft 140 kts 334°
2026-05-01 10:20 -34.30138 150.37460 1930 ft 147 kts 318°
2026-05-01 10:21 -34.29506 150.36433 1759 ft 152 kts 305°
2026-05-01 10:21 -34.27955 150.35044 1720 ft 143 kts 349°
2026-05-01 10:21 -34.26949 150.34968 1567 ft 143 kts
2026-05-01 10:22 -34.25060 150.35123 1826 ft 135 kts
2026-05-01 10:22 -34.23157 150.35162 1898 ft 131 kts 358°
2026-05-01 10:23 -34.22255 150.35406 2011 ft 139 kts 21°
2026-05-01 10:23 -34.20329 150.36455 2243 ft 161 kts 28°
2026-05-01 10:23 -34.19302 150.36976 2385 ft 158 kts 20°
2026-05-01 10:24 -34.17283 150.38267 2255 ft 176 kts 27°
2026-05-01 10:24 -34.15024 150.39486 1820 ft 167 kts 37°
2026-05-01 10:25 -34.14087 150.41873 2145 ft 163 kts 74°
2026-05-01 10:25 -34.13148 150.44387 1718 ft 165 kts 25°
2026-05-01 10:26 -34.12064 150.44228 1739 ft 163 kts 342°
2026-05-01 10:26 -34.10986 150.43709 1766 ft 172 kts 340°
2026-05-01 10:26 -34.08653 150.42981 1667 ft 171 kts 354°
2026-05-01 10:27 -34.06305 150.42921 1784 ft 170 kts
2026-05-01 10:27 -34.03937 150.43021 1728 ft 172 kts
2026-05-01 10:28 -34.02746 150.43242 1670 ft 174 kts
2026-05-01 10:28 -34.00295 150.43002 1341 ft 179 kts 349°
2026-05-01 10:28 -33.99083 150.42765 1331 ft 175 kts 355°
2026-05-01 10:29 -33.96695 150.42617 1466 ft 169 kts 357°
2026-05-01 10:29 -33.95554 150.42260 1456 ft 171 kts 335°
2026-05-01 10:30 -33.93630 150.40493 1480 ft 174 kts 322°
2026-05-01 10:30 -33.92037 150.39006 1507 ft 175 kts 324°
2026-05-01 10:31 -33.90125 150.37224 1623 ft 172 kts 320°
2026-05-01 10:31 -33.88197 150.35534 1836 ft 168 kts 329°
2026-05-01 10:32 -33.86243 150.34018 2123 ft 165 kts 331°
2026-05-01 10:32 -33.85244 150.33344 2309 ft 166 kts 331°
2026-05-01 10:32 -33.83277 150.31735 2371 ft 169 kts 328°
2026-05-01 10:33 -33.81254 150.30381 2681 ft 166 kts 338°
2026-05-01 10:33 -33.79026 150.29915 2820 ft 162 kts
2026-05-01 10:34 -33.77917 150.30078 2946 ft 162 kts 12°
2026-05-01 10:34 -33.76815 150.30451 2813 ft 172 kts 20°
2026-05-01 10:34 -33.75653 150.30863 2659 ft 173 kts 15°
2026-05-01 10:35 -33.73607 150.31124 3526 ft 139 kts
2026-05-01 10:35 -33.72708 150.31108 3958 ft 123 kts 349°
2026-05-01 10:35 -33.71882 150.30580 4241 ft 150 kts 328°
2026-05-01 10:35 -33.71027 150.29726 4180 ft 164 kts 325°
2026-05-01 10:36 -33.69070 150.28383 4339 ft 161 kts 344°
2026-05-01 10:36 -33.67990 150.28139 4444 ft 157 kts 358°
2026-05-01 10:36 -33.66906 150.27999 4579 ft 158 kts 356°
2026-05-01 10:37 -33.65834 150.27635 4626 ft 162 kts 343°
2026-05-01 10:37 -33.63709 150.26781 4735 ft 158 kts 348°
2026-05-01 10:37 -33.62655 150.26431 4833 ft 157 kts 351°
2026-05-01 10:38 -33.61565 150.26353 4771 ft 159 kts
2026-05-01 10:38 -33.60467 150.26567 4640 ft 161 kts 16°
2026-05-01 10:38 -33.59409 150.27013 4580 ft 162 kts 25°
2026-05-01 10:38 -33.58402 150.27615 4554 ft 163 kts 32°
2026-05-01 10:39 -33.57459 150.28380 4461 ft 164 kts 39°
2026-05-01 10:39 -33.56547 150.29209 4388 ft 165 kts 38°
2026-05-01 10:39 -33.55685 150.30101 4352 ft 163 kts 43°
2026-05-01 10:39 -33.54897 150.31079 4360 ft 162 kts 48°
2026-05-01 10:40 -33.54130 150.32033 4319 ft 162 kts 46°
2026-05-01 10:40 -33.53275 150.32924 4250 ft 165 kts 39°
2026-05-01 10:40 -33.52372 150.33801 4106 ft 169 kts 40°
2026-05-01 10:40 -33.51376 150.34573 3967 ft 169 kts 33°
2026-05-01 10:41 -33.50434 150.35391 3904 ft 166 kts 43°
2026-05-01 10:41 -33.49722 150.36467 3799 ft 166 kts 59°
2026-05-01 10:41 -33.48395 150.38829 3375 ft 173 kts 49°
2026-05-01 10:42 -33.47530 150.39810 3324 ft 170 kts 43°
2026-05-01 10:42 -33.46625 150.40686 3352 ft 165 kts 38°
2026-05-01 10:42 -33.45680 150.41460 3427 ft 164 kts 35°
2026-05-01 10:42 -33.44804 150.42349 3346 ft 168 kts 47°
2026-05-01 10:43 -33.43998 150.43384 3172 ft 173 kts 49°
2026-05-01 10:43 -33.43186 150.44448 3069 ft 169 kts 49°
2026-05-01 10:43 -33.42378 150.45474 3052 ft 171 kts 49°
2026-05-01 10:43 -33.41595 150.46579 2870 ft 178 kts 51°
2026-05-01 10:44 -33.40754 150.47697 2488 ft 183 kts 43°
2026-05-01 10:44 -33.39666 150.48475 2154 ft 179 kts 25°
2026-05-01 10:44 -33.38611 150.49088 2311 ft 165 kts 38°
2026-05-01 10:44 -33.38069 150.50315 2059 ft 173 kts 69°
2026-05-01 10:45 -33.37648 150.51668 2083 ft 172 kts 70°
2026-05-01 10:45 -33.37212 150.52987 2024 ft 174 kts 70°
2026-05-01 10:45 -33.36848 150.54387 1885 ft 179 kts 75°
2026-05-01 10:45 -33.36390 150.55798 1556 ft 186 kts 60°
2026-05-01 10:46 -33.35728 150.57122 1247 ft 180 kts 59°
2026-05-01 10:46 -33.34777 150.58024 1203 ft 175 kts 28°
2026-05-01 10:46 -33.33903 150.58898 1429 ft 148 kts 30°
2026-05-01 10:46 -33.33024 150.59418 2031 ft 146 kts 29°
2026-05-01 10:47 -33.32000 150.60001 1712 ft 178 kts 20°
2026-05-01 10:47 -33.30975 150.60804 1322 ft 179 kts 59°
2026-05-01 10:47 -33.30709 150.62176 1307 ft 163 kts 78°
2026-05-01 10:47 -33.29995 150.63200 1326 ft 162 kts 54°
2026-05-01 10:48 -33.29321 150.64222 1301 ft 155 kts 12°
2026-05-01 10:48 -33.28438 150.64685 1592 ft 148 kts 45°
2026-05-01 10:48 -33.27603 150.65542 1633 ft 165 kts 40°
2026-05-01 10:48 -33.26580 150.66255 1581 ft 173 kts 27°
2026-05-01 10:49 -33.25974 150.67336 1374 ft 163 kts 87°
2026-05-01 10:49 -33.25304 150.68048 1358 ft 126 kts 340°
2026-05-01 10:49 -33.25111 150.67103 1671 ft 139 kts 250°
2026-05-01 10:49 -33.25933 150.66571 1814 ft 144 kts 178°
2026-05-01 10:50 -33.26564 150.67359 1741 ft 148 kts 90°
2026-05-01 10:50 -33.25950 150.68295 1725 ft 155 kts 43°
2026-05-01 10:50 -33.25233 150.69304 1730 ft 170 kts 54°
2026-05-01 10:50 -33.24587 150.70552 1512 ft 180 kts 61°
2026-05-01 10:51 -33.24008 150.71854 1466 ft 175 kts 65°
2026-05-01 10:51 -33.23393 150.73107 1406 ft 177 kts 54°
2026-05-01 10:51 -33.22971 150.74441 1446 ft 171 kts 77°
2026-05-01 10:51 -33.22742 150.75814 1583 ft 167 kts 75°
2026-05-01 10:52 -33.22342 150.77098 1671 ft 163 kts 67°
2026-05-01 10:52 -33.21946 150.78380 1653 ft 168 kts 73°
2026-05-01 10:52 -33.21752 150.79775 1477 ft 173 kts 88°
2026-05-01 10:52 -33.21854 150.81191 1473 ft 171 kts 96°
2026-05-01 10:53 -33.22016 150.82604 1424 ft 173 kts 98°
2026-05-01 10:53 -33.21631 150.83938 1112 ft 173 kts 49°
2026-05-01 10:53 -33.20547 150.84572 912 ft 178 kts 24°
2026-05-01 10:53 -33.19494 150.85376 764 ft 182 kts 37°
2026-05-01 10:54 -33.18958 150.86617 682 ft 167 kts 88°
2026-05-01 10:54 -33.19351 150.87900 791 ft 169 kts 112°
2026-05-01 10:54 -33.19249 150.89302 638 ft 164 kts 63°
2026-05-01 10:54 -33.18501 150.90194 988 ft 150 kts 52°
2026-05-01 10:55 -33.17934 150.91272 1264 ft 159 kts 59°
2026-05-01 10:55 -33.17370 150.92425 1429 ft 160 kts 59°
2026-05-01 10:55 -33.16891 150.93666 1418 ft 171 kts 70°
2026-05-01 10:55 -33.16403 150.94978 1308 ft 175 kts 67°
2026-05-01 10:56 -33.16035 150.96353 1280 ft 173 kts 76°
2026-05-01 10:56 -33.15841 150.97759 1331 ft 170 kts 82°
2026-05-01 10:56 -33.15692 150.99160 1368 ft 172 kts 85°
2026-05-01 10:56 -33.15636 151.00609 1265 ft 175 kts 86°
2026-05-01 10:57 -33.15379 151.02000 1338 ft 169 kts 71°
2026-05-01 10:57 -33.14959 151.03319 1379 ft 172 kts 69°
2026-05-01 10:57 -33.14562 151.04664 1386 ft 172 kts 72°
2026-05-01 10:57 -33.14204 151.05996 1430 ft 170 kts 73°
2026-05-01 10:58 -33.13853 151.07344 1500 ft 169 kts 73°
2026-05-01 10:58 -33.13649 151.08708 1507 ft 169 kts 92°
2026-05-01 10:58 -33.13993 151.10044 1459 ft 170 kts 116°
2026-05-01 10:58 -33.14654 151.11217 1483 ft 170 kts 125°
2026-05-01 10:59 -33.15291 151.12394 1531 ft 170 kts 117°
2026-05-01 10:59 -33.15819 151.13679 1477 ft 173 kts 112°
2026-05-01 10:59 -33.16314 151.14943 1540 ft 168 kts 114°
2026-05-01 10:59 -33.16834 151.16182 1630 ft 166 kts 115°
2026-05-01 11:00 -33.17376 151.17405 1691 ft 167 kts 117°
2026-05-01 11:00 -33.17909 151.18634 1720 ft 166 kts 114°
2026-05-01 11:00 -33.18369 151.19885 1782 ft 164 kts 109°
2026-05-01 11:00 -33.18618 151.21203 1823 ft 163 kts 96°
2026-05-01 11:01 -33.18715 151.22558 1861 ft 164 kts 97°
2026-05-01 11:01 -33.18910 151.23900 1895 ft 164 kts 100°
2026-05-01 11:01 -33.19165 151.25239 1826 ft 167 kts 102°
2026-05-01 11:01 -33.19438 151.26602 1758 ft 170 kts 103°
2026-05-01 11:02 -33.19682 151.27981 1728 ft 170 kts 97°
2026-05-01 11:02 -33.19872 151.29373 1722 ft 169 kts 99°
2026-05-01 11:02 -33.20106 151.30743 1703 ft 169 kts 101°
2026-05-01 11:02 -33.20292 151.32111 1715 ft 168 kts 97°
2026-05-01 11:03 -33.20517 151.33471 1745 ft 166 kts 101°
2026-05-01 11:03 -33.20821 151.34788 1760 ft 164 kts 105°
2026-05-01 11:03 -33.21213 151.36076 1784 ft 166 kts 109°
2026-05-01 11:03 -33.21690 151.37333 1824 ft 167 kts 113°
2026-05-01 11:04 -33.22250 151.38552 1866 ft 168 kts 117°
2026-05-01 11:04 -33.22889 151.39722 1901 ft 168 kts 121°
2026-05-01 11:04 -33.23604 151.40836 1941 ft 170 kts 126°
2026-05-01 11:04 -33.24390 151.41889 1979 ft 170 kts 130°
2026-05-01 11:05 -33.25245 151.42876 1990 ft 171 kts 134°
2026-05-01 11:05 -33.26159 151.43786 1997 ft 173 kts 138°
2026-05-01 11:05 -33.26991 151.44797 1906 ft 171 kts 118°
2026-05-01 11:05 -33.27209 151.46153 1827 ft 165 kts 86°
2026-05-01 11:06 -33.26809 151.47416 1814 ft 167 kts 58°
2026-05-01 11:06 -33.26233 151.48613 1823 ft 165 kts 62°
2026-05-01 11:06 -33.25709 151.49811 1950 ft 161 kts 64°
2026-05-01 11:07 -33.24798 151.52272 2044 ft 169 kts 72°
2026-05-01 11:07 -33.24484 151.53650 1719 ft 173 kts 76°
2026-05-01 11:07 -33.24294 151.55063 1073 ft 170 kts 82°
2026-05-01 11:07 -33.24144 151.56421 755 ft 161 kts 79°
2026-05-01 11:08 -33.23852 151.57677 632 ft 152 kts 70°
2026-05-01 11:08 -33.23461 151.58802 626 ft 141 kts 66°
2026-05-01 11:08 -33.23040 151.60359 149 ft 96 kts 203°
2026-05-01 11:09 -33.22734 151.59920 210 ft 109 kts 352°
2026-05-01 11:09 -33.21939 151.60260 105 ft 134 kts 33°
2026-05-01 11:09 -33.21204 151.60987 77 ft 139 kts 43°
2026-05-01 11:10 -33.19754 151.62539 116 ft 140 kts 29°
2026-05-01 11:10 -33.18842 151.62925 216 ft 138 kts 20°
2026-05-01 11:10 -33.17909 151.63239 274 ft 143 kts 18°
2026-05-01 11:10 -33.16910 151.63503 158 ft 148 kts 17°
2026-05-01 11:11 -33.15946 151.63811 225 ft 140 kts 18°
2026-05-01 11:11 -33.15009 151.64104 274 ft 137 kts 17°
2026-05-01 11:11 -33.14081 151.64377 308 ft 138 kts 17°
2026-05-01 11:11 -33.13122 151.64688 197 ft 146 kts 15°
2026-05-01 11:12 -33.12144 151.64960 201 ft 143 kts 16°
2026-05-01 11:12 -33.11220 151.65329 245 ft 142 kts 24°
2026-05-01 11:12 -33.10322 151.65798 313 ft 140 kts 27°
2026-05-01 11:12 -33.09461 151.66326 421 ft 138 kts 28°
2026-05-01 11:13 -33.08522 151.66585 472 ft 142 kts
2026-05-01 11:13 -33.07546 151.66531 565 ft 142 kts
2026-05-01 11:13 -33.06549 151.66619 544 ft 142 kts 16°
2026-05-01 11:13 -33.05664 151.67039 597 ft 137 kts 30°
2026-05-01 11:14 -33.04918 151.67722 642 ft 133 kts 41°
2026-05-01 11:14 -33.04268 151.68481 761 ft 130 kts 49°
2026-05-01 11:14 -33.03685 151.69307 851 ft 132 kts 51°
2026-05-01 11:14 -33.03152 151.70220 827 ft 136 kts 56°
2026-05-01 11:15 -33.02610 151.71129 834 ft 133 kts 52°
2026-05-01 11:15 -33.02007 151.71975 935 ft 142 kts 47°
2026-05-01 11:15 -33.01151 151.72717 951 ft 162 kts 33°
2026-05-01 11:15 -33.00110 151.73306 984 ft 168 kts 25°
2026-05-01 11:16 -32.99069 151.73935 979 ft 167 kts 32°
2026-05-01 11:16 -32.98078 151.74642 1035 ft 165 kts 34°
2026-05-01 11:16 -32.97106 151.75385 998 ft 169 kts 35°
2026-05-01 11:16 -32.96140 151.76199 844 ft 167 kts 38°
2026-05-01 11:17 -32.95217 151.76982 1005 ft 161 kts 37°
2026-05-01 11:17 -32.94324 151.77801 1013 ft 165 kts 40°
2026-05-01 11:17 -32.93418 151.78668 967 ft 169 kts 39°
2026-05-01 11:17 -32.92456 151.79458 989 ft 167 kts 35°
2026-05-01 11:18 -32.91503 151.80273 985 ft 172 kts 38°
2026-05-01 11:18 -32.90558 151.81123 1004 ft 167 kts 39°
2026-05-01 11:18 -32.89644 151.81920 1172 ft 160 kts 38°
2026-05-01 11:18 -32.88772 151.82717 1370 ft 156 kts 41°
2026-05-01 11:19 -32.87966 151.83542 1215 ft 153 kts 43°
2026-05-01 11:19 -32.87144 151.84335 1054 ft 152 kts 39°
2026-05-01 11:19 -32.86330 151.85093 935 ft 152 kts 40°
2026-05-01 11:19 -32.85542 151.85926 831 ft 150 kts 43°
2026-05-01 11:20 -32.84795 151.86777 822 ft 150 kts 45°
2026-05-01 11:20 -32.83983 151.87545 669 ft 146 kts 32°
2026-05-01 11:20 -32.83067 151.87838 689 ft 132 kts 359°
2026-05-01 11:20 -32.82523 151.87524 703 ft 131 kts 325°
2026-05-01 11:21 -32.81851 151.86803 524 ft 128 kts 309°
2026-05-01 11:21 -32.81350 151.86002 365 ft 113 kts 307°
2026-05-01 11:21 -32.80764 151.85138 222 ft 92 kts 308°
2026-05-01 11:21 -32.80399 151.84622 99 ft 70 kts 307°
2026-05-01 11:22 -32.80222 151.84370 48 ft 48 kts 309°
2026-05-01 11:22 -32.80066 151.84155 37 ft 24 kts 308°
2026-05-01 11:22 -32.79968 151.84021 38 ft 24 kts 308°
2026-05-01 11:22 -32.79880 151.83908 31 ft 10 kts 313°
2026-05-01 11:23 -32.79819 151.83931 30 ft 13 kts 56°
2026-05-01 11:23 -32.79763 151.84018 30 ft 12 kts 51°
2026-05-01 11:23 -32.79716 151.84089 29 ft 10 kts 53°
2026-05-01 11:23 -32.79706 151.84160 28 ft 8 kts 141°
2026-05-01 11:24 -32.79748 151.84196 28 ft 7 kts 145°
2026-05-01 11:24 -32.79790 151.84230 28 ft 7 kts 146°
2026-05-01 11:24 -32.79802 151.84271 27 ft 0 kts 55°